Location: Bullfrog
(37.5121°N, 110.7330°W)
Time: 21:20:15
(UTC-07:00)

Tiangong - Visible Passes

Search period start: 16 January 2026 00:00
Search period end: 26 January 2026 00:00
Orbit: 378 x 394 km, 41.5° (Epoch: 16 January)

Date Brightness Start Highest point End Pass type
(mag) Time Alt. Az. Time Alt. Az. Time Alt. Az.
16 Jan 0.3 06:13:00 10° SSW 06:15:32 22° SSE 06:18:05 10° E visible
17 Jan 1.0 05:16:38 12° SE 05:16:38 12° SE 05:17:55 10° ESE visible
17 Jan -1.9 06:49:48 10° WSW 06:52:58 71° SSE 06:56:09 10° ENE visible
18 Jan -1.0 05:53:08 35° S 05:53:46 40° SSE 05:56:47 10° E visible
19 Jan 1.6 04:57:08 10° E 04:57:08 10° E 04:57:12 10° E visible
19 Jan -2.2 06:29:23 22° W 06:31:16 71° NNW 06:34:27 10° ENE visible
20 Jan -0.4 05:33:11 33° E 05:33:11 33° E 05:35:08 10° ENE visible
20 Jan -1.4 07:05:55 10° WNW 07:08:57 41° N 07:12:01 10° ENE visible
21 Jan -1.8 06:09:05 45° NW 06:09:31 49° NNW 06:12:38 10° ENE visible
22 Jan 0.9 05:12:37 15° ENE 05:12:37 15° ENE 05:13:16 10° ENE visible
22 Jan -1.3 06:44:51 15° WNW 06:47:12 38° N 06:50:13 10° ENE visible
23 Jan -1.0 05:48:19 35° NNE 05:48:19 35° NNE 05:50:43 10° ENE visible
24 Jan -1.3 06:23:56 24° NW 06:25:20 40° N 06:28:22 10° ENE visible
25 Jan 0.2 05:27:17 22° NE 05:27:17 22° NE 05:28:45 10° ENE visible
25 Jan -2.0 06:59:43 10° WNW 07:02:52 68° NNE 07:06:03 10° E visible
